| time (UTC) | temp F | wind direction | speed MPH | gust MPH | rain 1hr in | rain 24hr in | rain mn in | humidity % | barometer mb |
| 20260507072802 | 50 | 22 | 1.0 | 4.0 | 0.00 | 0.13 | 0.00 | 90 | 1011.9 |
| 20260507072532 | 50 | 326 | 1.0 | 3.0 | 0.00 | 0.13 | 0.00 | 90 | 1011.8 |
| 20260507072025 | 50 | 283 | 1.0 | 3.0 | 0.00 | 0.13 | 0.00 | 90 | 1011.8 |
| 20260507071302 | 50 | 14 | 1.0 | 3.0 | 0.00 | 0.14 | 0.00 | 90 | 1011.8 |
| 20260507070746 | 50 | 1 | 1.0 | 3.0 | 0.00 | 0.14 | 0.00 | 91 | 1011.8 |
| 20260507070450 | 50 | 1 | 1.0 | 3.0 | 0.00 | 0.15 | 0.00 | 91 | 1011.7 |
| 20260507065732 | 50 | 1 | 1.0 | 3.0 | 0.00 | 0.15 | 0.00 | 91 | 1011.6 |
| 20260507065231 | 49 | 9 | 1.0 | 3.0 | 0.00 | 0.16 | 0.00 | 92 | 1011.6 |
| 20260507064731 | 49 | 33 | 1.0 | 3.0 | 0.00 | 0.16 | 0.00 | 92 | 1011.6 |
| 20260507064227 | 49 | 314 | 1.0 | 4.0 | 0.00 | 0.16 | 0.00 | 92 | 1011.6 |
| 20260507063724 | 49 | 7 | 1.0 | 4.0 | 0.00 | 0.17 | 0.00 | 92 | 1011.6 |
| 20260507063205 | 49 | 4 | 1.0 | 3.0 | 0.00 | 0.17 | 0.00 | 92 | 1011.5 |
| 20260507062705 | 49 | 1 | 1.0 | 4.0 | 0.00 | 0.17 | 0.00 | 93 | 1011.6 |
| 20260507062141 | 49 | 298 | 0.0 | 2.0 | 0.00 | 0.17 | 0.00 | 94 | 1011.5 |
| 20260507061640 | 49 | 298 | 1.0 | 2.0 | 0.00 | 0.18 | 0.00 | 94 | 1011.5 |
| 20260507061138 | 49 | 304 | 1.0 | 3.0 | 0.00 | 0.18 | 0.00 | 94 | 1011.4 |
| 20260507060632 | 48 | 34 | 1.0 | 3.0 | 0.00 | 0.18 | 0.00 | 94 | 1011.3 |
| 20260507060356 | 48 | 8 | 1.0 | 3.0 | 0.00 | 0.18 | 0.00 | 95 | 1011.3 |
| 20260507055603 | 48 | 31 | 0.0 | 2.0 | 0.00 | 0.19 | 0.00 | 95 | 1011.3 |
| 20260507055102 | 48 | 31 | 0.0 | 2.0 | 0.00 | 0.19 | 0.00 | 96 | 1011.2 |
| 20260507054604 | 48 | 359 | 0.0 | 2.0 | 0.00 | 0.19 | 0.00 | 96 | 1011.2 |
| 20260507054033 | 48 | 359 | 0.0 | 2.0 | 0.00 | 0.20 | 0.00 | 96 | 1011.2 |
| 20260507053528 | 48 | 6 | 0.0 | 1.0 | 0.00 | 0.20 | 0.00 | 96 | 1011.1 |
| 20260507053026 | 47 | 1 | 0.0 | 3.0 | 0.00 | 0.20 | 0.00 | 96 | 1011.1 |
| 20260507052533 | 47 | 357 | 0.0 | 2.0 | 0.00 | 0.20 | 0.00 | 96 | 1011.1 |
| 20260507052022 | 47 | 324 | 0.0 | 1.0 | 0.00 | 0.20 | 0.00 | 96 | 1011.1 |
| 20260507051739 | 47 | 324 | 0.0 | 2.0 | 0.00 | 0.21 | 0.00 | 96 | 1011.0 |
| 20260507051003 | 47 | 326 | 0.0 | 2.0 | 0.00 | 0.21 | 0.00 | 97 | 1010.9 |
| 20260507050722 | 47 | 8 | 0.0 | 0.0 | 0.00 | 0.21 | 0.00 | 97 | 1010.8 |
| 20260507050151 | 47 | 8 | 0.0 | 2.0 | 0.00 | 0.22 | 0.00 | 97 | 1010.8 |
| 20260507045433 | 47 | 8 | 0.0 | 2.0 | 0.00 | 0.22 | 0.00 | 97 | 1010.7 |
| 20260507044932 | 47 | 4 | 0.0 | 2.0 | 0.00 | 0.22 | 0.00 | 97 | 1010.6 |
| 20260507044428 | 47 | 4 | 0.0 | 0.0 | 0.00 | 0.23 | 0.00 | 97 | 1010.5 |
| 20260507043928 | 47 | 4 | 0.0 | 2.0 | 0.00 | 0.23 | 0.00 | 97 | 1010.5 |
| 20260507043650 | 47 | 328 | 0.0 | 1.0 | 0.00 | 0.23 | 0.00 | 97 | 1010.4 |
| 20260507042921 | 47 | 328 | 0.0 | 1.0 | 0.00 | 0.24 | 0.00 | 97 | 1010.4 |
| 20260507042420 | 47 | 328 | 0.0 | 1.0 | 0.00 | 0.24 | 0.00 | 97 | 1010.3 |
| 20260507041917 | 47 | 359 | 0.0 | 1.0 | 0.00 | 0.24 | 0.00 | 97 | 1010.3 |
| 20260507041402 | 47 | 359 | 0.0 | 1.0 | 0.00 | 0.24 | 0.00 | 97 | 1010.3 |
| 20260507040902 | 47 | 359 | 0.0 | 1.0 | 0.00 | 0.24 | 0.00 | 97 | 1010.2 |
| 20260507040404 | 47 | 359 | 0.0 | 2.0 | 0.00 | 0.24 | 0.00 | 97 | 1010.1 |
| 20260507035902 | 47 | 359 | 0.0 | 2.0 | 0.00 | 0.24 | 0.00 | 97 | 1010.1 |
| 20260507035332 | 47 | 0 | 0.0 | 3.0 | 0.00 | 0.24 | 0.00 | 97 | 1010.1 |
| 20260507035042 | 47 | 0 | 0.0 | 3.0 | 0.00 | 0.25 | 0.00 | 97 | 1010.1 |
| 20260507034303 | 47 | 4 | 0.0 | 0.0 | 0.00 | 0.25 | 0.00 | 97 | 1010.1 |
| 20260507033803 | 47 | 4 | 0.0 | 1.0 | 0.00 | 0.25 | 0.00 | 97 | 1010.1 |
| 20260507033231 | 47 | 4 | 0.0 | 1.0 | 0.00 | 0.26 | 0.00 | 97 | 1010.1 |
| 20260507032955 | 47 | 4 | 0.0 | 0.0 | 0.00 | 0.26 | 0.00 | 97 | 1010.0 |
| 20260507032231 | 46 | 4 | 0.0 | 0.0 | 0.00 | 0.27 | 0.00 | 97 | 1010.0 |
| 20260507031703 | 47 | 4 | 0.0 | 0.0 | 0.00 | 0.27 | 0.00 | 97 | 1010.0 |
| 20260507031203 | 46 | 4 | 0.0 | 0.0 | 0.00 | 0.28 | 0.00 | 97 | 1010.0 |
| 20260507030701 | 47 | 4 | 0.0 | 0.0 | 0.00 | 0.28 | 0.00 | 97 | 1010.0 |
| 20260507030148 | 46 | 4 | 0.0 | 0.0 | 0.00 | 0.28 | 0.00 | 97 | 1010.0 |
| 20260507025641 | 46 | 4 | 0.0 | 0.0 | 0.00 | 0.29 | 0.00 | 97 | 1009.9 |
| 20260507025354 | 46 | 4 | 0.0 | 0.0 | 0.00 | 0.29 | 0.00 | 97 | 1010.0 |
| 20260507024630 | 46 | 4 | 0.0 | 0.0 | 0.00 | 0.30 | 0.00 | 97 | 1010.0 |
| 20260507024103 | 46 | 4 | 0.0 | 0.0 | 0.00 | 0.31 | 0.00 | 97 | 1009.9 |
| 20260507023602 | 46 | 4 | 0.0 | 0.0 | 0.00 | 0.31 | 0.00 | 97 | 1009.8 |
| 20260507023031 | 46 | 4 | 0.0 | 0.0 | 0.00 | 0.31 | 0.00 | 97 | 1009.9 |
| 20260507022752 | 46 | 4 | 0.0 | 0.0 | 0.00 | 0.32 | 0.00 | 97 | 1009.8 |
| 20260507022004 | 46 | 4 | 0.0 | 0.0 | 0.00 | 0.32 | 0.00 | 97 | 1009.7 |
| 20260507021504 | 46 | 4 | 0.0 | 0.0 | 0.00 | 0.32 | 0.00 | 97 | 1009.7 |
| 20260507021004 | 46 | 4 | 0.0 | 0.0 | 0.00 | 0.33 | 0.00 | 97 | 1009.7 |
| 20260507020432 | 46 | 4 | 0.0 | 0.0 | 0.00 | 0.34 | 0.00 | 97 | 1009.7 |
| 20260507015926 | 46 | 4 | 0.0 | 0.0 | 0.00 | 0.34 | 0.00 | 97 | 1009.7 |
| 20260507015404 | 46 | 4 | 0.0 | 0.0 | 0.00 | 0.35 | 0.00 | 97 | 1009.6 |
| 20260507014904 | 46 | 4 | 0.0 | 0.0 | 0.00 | 0.35 | 0.00 | 97 | 1009.6 |
| 20260507014332 | 46 | 4 | 0.0 | 0.0 | 0.00 | 0.35 | 0.00 | 97 | 1009.7 |
| 20260507013820 | 46 | 4 | 0.0 | 0.0 | 0.00 | 0.35 | 0.00 | 97 | 1009.7 |
| 20260507013303 | 46 | 4 | 0.0 | 0.0 | 0.00 | 0.36 | 0.00 | 97 | 1009.7 |
| 20260507012802 | 46 | 4 | 0.0 | 0.0 | 0.00 | 0.37 | 0.00 | 97 | 1009.6 |
| 20260507012527 | 46 | 4 | 0.0 | 0.0 | 0.00 | 0.37 | 0.00 | 97 | 1009.6 |
| 20260507011803 | 46 | 4 | 0.0 | 0.0 | 0.00 | 0.38 | 0.00 | 97 | 1009.6 |
| 20260507011302 | 46 | 4 | 0.0 | 0.0 | 0.00 | 0.38 | 0.00 | 97 | 1009.5 |
| 20260507010730 | 46 | 4 | 0.0 | 0.0 | 0.00 | 0.38 | 0.00 | 97 | 1009.4 |
| 20260507010222 | 46 | 4 | 0.0 | 0.0 | 0.00 | 0.39 | 0.00 | 97 | 1009.4 |
| 20260507005703 | 46 | 4 | 0.0 | 0.0 | 0.00 | 0.39 | 0.00 | 97 | 1009.4 |
| 20260507005203 | 46 | 4 | 0.0 | 0.0 | 0.00 | 0.39 | 0.00 | 97 | 1009.4 |
| 20260507004644 | 46 | 4 | 0.0 | 0.0 | 0.00 | 0.39 | 0.00 | 97 | 1009.4 |
| 20260507004139 | 46 | 4 | 0.0 | 0.0 | 0.00 | 0.39 | 0.00 | 97 | 1009.4 |
| 20260507003637 | 46 | 4 | 0.0 | 1.0 | 0.00 | 0.40 | 0.00 | 97 | 1009.5 |
| 20260507003136 | 46 | 4 | 0.0 | 1.0 | 0.00 | 0.40 | 0.00 | 96 | 1009.5 |
| 20260507002855 | 46 | 4 | 0.0 | 0.0 | 0.00 | 0.40 | 0.00 | 96 | 1009.4 |
| 20260507002131 | 46 | 4 | 0.0 | 0.0 | 0.00 | 0.41 | 0.00 | 96 | 1009.3 |
| 20260507001632 | 46 | 4 | 0.0 | 0.0 | 0.00 | 0.42 | 0.00 | 96 | 1009.4 |
| 20260507001138 | 46 | 4 | 0.0 | 0.0 | 0.00 | 0.42 | 0.00 | 96 | 1009.3 |
| 20260507000608 | 46 | 4 | 0.0 | 0.0 | 0.00 | 0.43 | 0.00 | 96 | 1009.3 |
| 20260507000107 | 46 | 4 | 0.0 | 0.0 | 0.00 | 0.43 | 0.00 | 96 | 1009.3 |
| 20260506235536 | 46 | 4 | 0.0 | 0.0 | 0.00 | 0.43 | 0.00 | 96 | 1009.3 |
| 20260506235034 | 46 | 4 | 0.0 | 0.0 | 0.00 | 0.43 | 0.00 | 96 | 1009.3 |
| 20260506234503 | 45 | 4 | 0.0 | 0.0 | 0.00 | 0.43 | 0.00 | 96 | 1009.4 |
| 20260506234003 | 45 | 4 | 0.0 | 0.0 | 0.00 | 0.44 | 0.00 | 96 | 1009.4 |
| 20260506233508 | 46 | 4 | 0.0 | 0.0 | 0.00 | 0.44 | 0.00 | 96 | 1009.3 |
| 20260506233155 | 45 | 4 | 0.0 | 0.0 | 0.00 | 0.44 | 0.00 | 95 | 1009.3 |
| 20260506232428 | 46 | 4 | 0.0 | 0.0 | 0.00 | 0.45 | 0.00 | 95 | 1009.3 |
| 20260506231912 | 46 | 4 | 0.0 | 0.0 | 0.00 | 0.45 | 0.00 | 95 | 1009.3 |
| 20260506231412 | 46 | 4 | 0.0 | 0.0 | 0.00 | 0.45 | 0.00 | 95 | 1009.2 |
| 20260506230840 | 46 | 4 | 0.0 | 0.0 | 0.00 | 0.45 | 0.00 | 95 | 1009.2 |
| 20260506230559 | 46 | 4 | 0.0 | 0.0 | 0.00 | 0.46 | 0.00 | 95 | 1009.2 |
| 20260506225827 | 46 | 4 | 0.0 | 0.0 | 0.00 | 0.46 | 0.00 | 95 | 1009.1 |
| 20260506225528 | 46 | 4 | 0.0 | 0.0 | 0.00 | 0.46 | 0.00 | 95 | 1009.1 |
| 20260506224804 | 46 | 4 | 0.0 | 0.0 | 0.00 | 0.47 | 0.00 | 95 | 1009.0 |
| 20260506224302 | 46 | 4 | 0.0 | 0.0 | 0.00 | 0.47 | 0.00 | 95 | 1009.0 |
| 20260506223802 | 46 | 4 | 0.0 | 0.0 | 0.00 | 0.48 | 0.00 | 95 | 1008.9 |
| 20260506223231 | 47 | 4 | 0.0 | 2.0 | 0.00 | 0.48 | 0.00 | 95 | 1008.9 |
| 20260506222730 | 47 | 4 | 0.0 | 2.0 | 0.00 | 0.49 | 0.00 | 95 | 1008.8 |
| 20260506222218 | 47 | 15 | 1.0 | 4.0 | 0.00 | 0.49 | 0.00 | 95 | 1008.8 |
| 20260506221712 | 47 | 18 | 1.0 | 4.0 | 0.00 | 0.50 | 0.00 | 95 | 1008.7 |
| 20260506221427 | 47 | 39 | 0.0 | 1.0 | 0.00 | 0.50 | 0.00 | 95 | 1008.7 |
| 20260506220631 | 47 | 1 | 0.0 | 0.0 | 0.00 | 0.50 | 0.00 | 94 | 1008.6 |
| 20260506220131 | 47 | 1 | 0.0 | 1.0 | 0.00 | 0.50 | 0.00 | 94 | 1008.5 |
| 20260506215604 | 47 | 23 | 0.0 | 1.0 | 0.00 | 0.50 | 0.50 | 94 | 1008.5 |
| 20260506215103 | 47 | 23 | 0.0 | 2.0 | 0.00 | 0.51 | 0.50 | 94 | 1008.5 |
| 20260506214603 | 48 | 8 | 0.0 | 2.0 | 0.00 | 0.51 | 0.50 | 94 | 1008.3 |
| 20260506214031 | 48 | 32 | 0.0 | 2.0 | 0.00 | 0.52 | 0.50 | 94 | 1008.4 |
| 20260506213748 | 48 | 33 | 1.0 | 4.0 | 0.00 | 0.52 | 0.50 | 94 | 1008.3 |
| 20260506213003 | 48 | 33 | 1.0 | 4.0 | 0.00 | 0.53 | 0.50 | 94 | 1008.3 |
| 20260506212431 | 48 | 20 | 1.0 | 3.0 | 0.00 | 0.53 | 0.50 | 95 | 1008.3 |
| 20260506211932 | 48 | 47 | 1.0 | 5.0 | 0.00 | 0.54 | 0.50 | 95 | 1008.3 |
| 20260506211427 | 48 | 43 | 1.0 | 5.0 | 0.00 | 0.54 | 0.50 | 95 | 1008.3 |
| 20260506210919 | 48 | 1 | 0.0 | 2.0 | 0.00 | 0.54 | 0.50 | 95 | 1008.3 |
| 20260506210403 | 48 | 1 | 0.0 | 1.0 | 0.00 | 0.55 | 0.50 | 95 | 1008.3 |
| 20260506205830 | 48 | 1 | 0.0 | 1.0 | 0.00 | 0.55 | 0.50 | 95 | 1008.3 |
| 20260506205331 | 48 | 1 | 0.0 | 2.0 | 0.00 | 0.56 | 0.50 | 95 | 1008.3 |
| 20260506205058 | 48 | 1 | 0.0 | 2.0 | 0.00 | 0.56 | 0.50 | 95 | 1008.3 |
| 20260506204325 | 48 | 1 | 1.0 | 4.0 | 0.00 | 0.57 | 0.50 | 95 | 1008.2 |
| 20260506203803 | 48 | 347 | 1.0 | 4.0 | 0.00 | 0.57 | 0.50 | 95 | 1008.2 |
| 20260506203302 | 48 | 10 | 1.0 | 3.0 | 0.00 | 0.57 | 0.50 | 95 | 1008.2 |
| 20260506202803 | 48 | 23 | 1.0 | 3.0 | 0.00 | 0.58 | 0.50 | 95 | 1008.2 |
| 20260506202306 | 48 | 3 | 1.0 | 4.0 | 0.00 | 0.58 | 0.50 | 95 | 1008.1 |
| 20260506201802 | 48 | 4 | 1.0 | 4.0 | 0.00 | 0.59 | 0.50 | 95 | 1008.1 |
| 20260506201302 | 48 | 1 | 1.0 | 5.0 | 0.00 | 0.59 | 0.50 | 95 | 1008.1 |
| 20260506200751 | 48 | 359 | 0.0 | 5.0 | 0.00 | 0.59 | 0.50 | 95 | 1008.1 |
| 20260506200233 | 48 | 1 | 1.0 | 4.0 | 0.00 | 0.59 | 0.50 | 95 | 1008.1 |
| 20260506195731 | 48 | 8 | 0.0 | 3.0 | 0.00 | 0.60 | 0.50 | 95 | 1008.1 |
| 20260506195230 | 48 | 0 | 0.0 | 0.0 | 0.00 | 0.60 | 0.50 | 95 | 1008.0 |
| 20260506194729 | 48 | 0 | 0.0 | 2.0 | 0.00 | 0.60 | 0.50 | 95 | 1007.9 |
| 20260506194226 | 48 | 0 | 1.0 | 3.0 | 0.00 | 0.60 | 0.50 | 95 | 1007.9 |
| 20260506193704 | 48 | 3 | 1.0 | 3.0 | 0.00 | 0.61 | 0.50 | 95 | 1007.9 |
| 20260506193203 | 48 | 44 | 1.0 | 2.0 | 0.00 | 0.61 | 0.50 | 95 | 1007.8 |
| 20260506192647 | 48 | 1 | 1.0 | 4.0 | 0.00 | 0.61 | 0.50 | 95 | 1007.7 |
| 20260506192133 | 48 | 2 | 1.0 | 4.0 | 0.00 | 0.61 | 0.50 | 95 | 1007.7 |
| 20260506191632 | 48 | 41 | 1.0 | 4.0 | 0.00 | 0.61 | 0.50 | 95 | 1007.6 |
| 20260506191130 | 48 | 51 | 2.0 | 4.0 | 0.00 | 0.61 | 0.50 | 94 | 1007.6 |
| 20260506190632 | 48 | 7 | 2.0 | 3.0 | 0.00 | 0.62 | 0.50 | 94 | 1007.6 |
| 20260506190326 | 48 | 57 | 1.0 | 4.0 | 0.00 | 0.62 | 0.50 | 94 | 1007.6 |
| 20260506190039 | 48 | 6 | 1.0 | 3.0 | 0.00 | 0.62 | 0.50 | 94 | 1007.5 |
| 20260506190030 | 48 | 359 | 1.0 | 4.0 | 0.00 | 0.62 | 0.50 | 94 | 1007.5 |
| 20260506184538 | 48 | 20 | 1.0 | 3.0 | 0.00 | 0.62 | 0.50 | 94 | 1007.4 |
| 20260506184251 | 48 | 7 | 1.0 | 6.0 | 0.00 | 0.62 | 0.50 | 94 | 1007.4 |
| 20260506183531 | 49 | 1 | 1.0 | 6.0 | 0.00 | 0.62 | 0.50 | 93 | 1007.4 |
| 20260506183027 | 49 | 23 | 1.0 | 3.0 | 0.00 | 0.62 | 0.50 | 93 | 1007.3 |
| 20260506182507 | 49 | 15 | 1.0 | 3.0 | 0.00 | 0.62 | 0.50 | 93 | 1007.2 |
| 20260506182008 | 49 | 22 | 1.0 | 4.0 | 0.00 | 0.62 | 0.50 | 93 | 1007.1 |
| 20260506181437 | 49 | 8 | 1.0 | 4.0 | 0.00 | 0.62 | 0.50 | 93 | 1007.1 |
| 20260506180935 | 49 | 333 | 1.0 | 4.0 | 0.00 | 0.62 | 0.50 | 93 | 1007.1 |
| 20260506180432 | 49 | 22 | 1.0 | 4.0 | 0.00 | 0.62 | 0.50 | 93 | 1007.0 |
| 20260506175930 | 49 | 343 | 1.0 | 3.0 | 0.00 | 0.62 | 0.50 | 93 | 1006.9 |
| 20260506175430 | 49 | 34 | 1.0 | 3.0 | 0.00 | 0.62 | 0.50 | 93 | 1006.9 |
| 20260506174932 | 49 | 63 | 2.0 | 6.0 | 0.00 | 0.62 | 0.50 | 93 | 1006.9 |
| 20260506174430 | 49 | 6 | 2.0 | 6.0 | 0.00 | 0.62 | 0.50 | 92 | 1006.8 |
| 20260506173930 | 49 | 1 | 2.0 | 6.0 | 0.00 | 0.62 | 0.50 | 92 | 1006.7 |
| 20260506173655 | 49 | 1 | 2.0 | 5.0 | 0.00 | 0.62 | 0.50 | 92 | 1006.7 |
| 20260506173156 | 49 | 65 | 2.0 | 5.0 | 0.00 | 0.62 | 0.50 | 92 | 1006.6 |
| 20260506172425 | 49 | 354 | 1.0 | 5.0 | 0.00 | 0.62 | 0.50 | 92 | 1006.5 |
| 20260506171905 | 49 | 141 | 1.0 | 4.0 | 0.00 | 0.62 | 0.50 | 92 | 1006.5 |
| 20260506171402 | 50 | 23 | 1.0 | 4.0 | 0.00 | 0.62 | 0.50 | 91 | 1006.4 |
| 20260506170902 | 50 | 37 | 1.0 | 3.0 | 0.00 | 0.62 | 0.50 | 92 | 1006.4 |
| 20260506170331 | 50 | 72 | 0.0 | 3.0 | 0.00 | 0.62 | 0.50 | 92 | 1006.4 |
| 20260506165830 | 50 | 8 | 0.0 | 2.0 | 0.00 | 0.62 | 0.50 | 91 | 1006.4 |
| 20260506165557 | 50 | 345 | 0.0 | 2.0 | 0.00 | 0.62 | 0.50 | 91 | 1006.4 |
| 20260506164805 | 50 | 7 | 1.0 | 3.0 | 0.00 | 0.62 | 0.50 | 91 | 1006.3 |
| 20260506164307 | 50 | 78 | 1.0 | 4.0 | 0.00 | 0.62 | 0.50 | 91 | 1006.3 |
| 20260506163732 | 50 | 1 | 1.0 | 4.0 | 0.00 | 0.62 | 0.50 | 91 | 1006.3 |
| 20260506163231 | 50 | 1 | 2.0 | 4.0 | 0.00 | 0.62 | 0.50 | 91 | 1006.3 |
| 20260506162725 | 50 | 56 | 2.0 | 4.0 | 0.00 | 0.62 | 0.50 | 91 | 1006.3 |
| 20260506162445 | 50 | 347 | 2.0 | 6.0 | 0.00 | 0.62 | 0.50 | 91 | 1006.2 |
| 20260506161927 | 50 | 57 | 2.0 | 6.0 | 0.00 | 0.62 | 0.50 | 91 | 1006.2 |
| 20260506161202 | 50 | 11 | 3.0 | 7.0 | 0.00 | 0.62 | 0.50 | 91 | 1006.2 |
| 20260506160652 | 50 | 1 | 3.0 | 7.0 | 0.00 | 0.62 | 0.50 | 92 | 1006.1 |
| 20260506160132 | 50 | 38 | 2.0 | 6.0 | 0.00 | 0.62 | 0.50 | 92 | 1006.1 |
| 20260506155629 | 49 | 354 | 2.0 | 5.0 | 0.00 | 0.62 | 0.50 | 92 | 1006.1 |
| 20260506155104 | 49 | 15 | 2.0 | 5.0 | 0.00 | 0.62 | 0.50 | 92 | 1006.1 |
| 20260506154603 | 49 | 11 | 3.0 | 8.0 | 0.00 | 0.62 | 0.50 | 92 | 1006.1 |
| 20260506154032 | 49 | 358 | 3.0 | 8.0 | 0.00 | 0.62 | 0.50 | 92 | 1006.1 |
| 20260506153529 | 49 | 357 | 3.0 | 6.0 | 0.00 | 0.62 | 0.50 | 92 | 1006.1 |
| 20260506153032 | 49 | 9 | 2.0 | 7.0 | 0.00 | 0.62 | 0.50 | 92 | 1006.1 |
| 20260506152524 | 49 | 8 | 3.0 | 7.0 | 0.00 | 0.62 | 0.50 | 93 | 1006.1 |
| 20260506152019 | 49 | 13 | 3.0 | 7.0 | 0.00 | 0.62 | 0.50 | 93 | 1006.1 |
| 20260506151504 | 49 | 2 | 2.0 | 7.0 | 0.00 | 0.62 | 0.50 | 93 | 1006.0 |
| 20260506150937 | 49 | 257 | 2.0 | 7.0 | 0.00 | 0.62 | 0.50 | 93 | 1006.0 |
| 20260506150433 | 49 | 2 | 2.0 | 7.0 | 0.00 | 0.62 | 0.50 | 93 | 1006.0 |
| 20260506150202 | 49 | 1 | 1.0 | 6.0 | 0.00 | 0.62 | 0.50 | 93 | 1005.9 |
| 20260506145656 | 49 | 319 | 1.0 | 4.0 | 0.00 | 0.62 | 0.50 | 93 | 1005.9 |
| 20260506145153 | 49 | 13 | 1.0 | 6.0 | 0.00 | 0.62 | 0.50 | 93 | 1005.9 |
| 20260506144432 | 49 | 23 | 2.0 | 6.0 | 0.00 | 0.62 | 0.50 | 93 | 1005.9 |
| 20260506143930 | 49 | 40 | 3.0 | 7.0 | 0.00 | 0.62 | 0.50 | 93 | 1005.9 |
| 20260506143430 | 49 | 359 | 3.0 | 7.0 | 0.00 | 0.62 | 0.50 | 93 | 1005.9 |
| 20260506142930 | 49 | 0 | 2.0 | 6.0 | 0.00 | 0.62 | 0.50 | 94 | 1005.9 |
| 20260506142436 | 49 | 287 | 2.0 | 8.0 | 0.00 | 0.62 | 0.50 | 94 | 1005.9 |
| 20260506141932 | 49 | 21 | 2.0 | 6.0 | 0.00 | 0.62 | 0.50 | 94 | 1005.9 |
| 20260506141433 | 49 | 62 | 2.0 | 6.0 | 0.00 | 0.62 | 0.50 | 95 | 1006.0 |
| 20260506141132 | 49 | 8 | 2.0 | 5.0 | 0.00 | 0.62 | 0.50 | 95 | 1006.0 |
| 20260506140626 | 49 | 10 | 2.0 | 5.0 | 0.00 | 0.62 | 0.50 | 95 | 1005.9 |
| 20260506135902 | 49 | 357 | 2.0 | 5.0 | 0.00 | 0.62 | 0.50 | 95 | 1005.9 |
| 20260506135402 | 49 | 41 | 1.0 | 4.0 | 0.00 | 0.62 | 0.50 | 95 | 1005.9 |
| 20260506134903 | 49 | 0 | 1.0 | 2.0 | 0.00 | 0.62 | 0.50 | 95 | 1005.9 |
| 20260506134332 | 49 | 24 | 1.0 | 6.0 | 0.00 | 0.62 | 0.50 | 95 | 1005.9 |
| 20260506133832 | 49 | 345 | 2.0 | 5.0 | 0.00 | 0.62 | 0.50 | 95 | 1005.9 |
| 20260506133303 | 49 | 5 | 2.0 | 6.0 | 0.01 | 0.62 | 0.50 | 95 | 1005.9 |
| 20260506132802 | 49 | 41 | 2.0 | 6.0 | 0.01 | 0.62 | 0.50 | 95 | 1005.8 |
| 20260506132453 | 49 | 359 | 2.0 | 7.0 | 0.01 | 0.62 | 0.50 | 95 | 1005.8 |
| 20260506131730 | 49 | 0 | 2.0 | 7.0 | 0.01 | 0.62 | 0.50 | 95 | 1005.8 |
| 20260506131452 | 49 | 9 | 2.0 | 6.0 | 0.01 | 0.62 | 0.50 | 95 | 1005.8 |
| 20260506130730 | 49 | 40 | 2.0 | 6.0 | 0.01 | 0.62 | 0.50 | 95 | 1005.7 |
| 20260506130213 | 49 | 25 | 2.0 | 5.0 | 0.02 | 0.62 | 0.50 | 95 | 1005.6 |
| 20260506125703 | 49 | 1 | 2.0 | 5.0 | 0.02 | 0.62 | 0.50 | 95 | 1005.6 |
| 20260506125202 | 49 | 309 | 2.0 | 8.0 | 0.02 | 0.62 | 0.50 | 95 | 1005.6 |
| 20260506124645 | 49 | 16 | 2.0 | 8.0 | 0.02 | 0.62 | 0.50 | 95 | 1005.5 |
| 20260506124359 | 49 | 30 | 2.0 | 7.0 | 0.02 | 0.62 | 0.50 | 95 | 1005.5 |
| 20260506123856 | 49 | 11 | 3.0 | 7.0 | 0.01 | 0.61 | 0.50 | 95 | 1005.5 |
| 20260506123131 | 49 | 8 | 3.0 | 7.0 | 0.01 | 0.61 | 0.50 | 95 | 1005.5 |
| 20260506122630 | 49 | 354 | 3.0 | 7.0 | 0.01 | 0.61 | 0.50 | 95 | 1005.5 |
| 20260506122103 | 49 | 10 | 2.0 | 5.0 | 0.02 | 0.61 | 0.50 | 95 | 1005.4 |
| 20260506121602 | 49 | 297 | 2.0 | 9.0 | 0.02 | 0.61 | 0.50 | 96 | 1005.4 |
| 20260506121032 | 49 | 346 | 3.0 | 9.0 | 0.02 | 0.61 | 0.50 | 96 | 1005.3 |
| 20260506120531 | 49 | 24 | 3.0 | 7.0 | 0.02 | 0.61 | 0.50 | 95 | 1005.3 |
| 20260506120257 | 49 | 3 | 3.0 | 8.0 | 0.02 | 0.61 | 0.49 | 95 | 1005.3 |
| 20260506115529 | 49 | 281 | 2.0 | 8.0 | 0.02 | 0.61 | 0.49 | 96 | 1005.2 |
| 20260506115026 | 49 | 343 | 3.0 | 9.0 | 0.02 | 0.61 | 0.49 | 96 | 1005.1 |
| 20260506114520 | 49 | 1 | 4.0 | 9.0 | 0.02 | 0.61 | 0.49 | 96 | 1005.1 |
| 20260506114226 | 49 | 49 | 4.0 | 11.0 | 0.02 | 0.61 | 0.49 | 96 | 1005.0 |
| 20260506113504 | 49 | 298 | 3.0 | 11.0 | 0.02 | 0.61 | 0.49 | 96 | 1005.0 |
| 20260506112932 | 49 | 0 | 3.0 | 7.0 | 0.03 | 0.61 | 0.49 | 96 | 1005.0 |
| 20260506112430 | 49 | 3 | 3.0 | 7.0 | 0.03 | 0.61 | 0.49 | 96 | 1004.9 |
| 20260506112153 | 49 | 46 | 3.0 | 7.0 | 0.02 | 0.60 | 0.48 | 96 | 1004.9 |
| 20260506111430 | 50 | 340 | 2.0 | 7.0 | 0.03 | 0.60 | 0.48 | 96 | 1004.9 |
| 20260506110931 | 50 | 8 | 2.0 | 7.0 | 0.02 | 0.59 | 0.47 | 96 | 1004.9 |
| 20260506110405 | 50 | 296 | 2.0 | 7.0 | 0.02 | 0.59 | 0.47 | 96 | 1004.9 |
| 20260506105904 | 50 | 32 | 2.0 | 5.0 | 0.02 | 0.59 | 0.47 | 97 | 1004.8 |
| 20260506105332 | 50 | 1 | 2.0 | 5.0 | 0.02 | 0.59 | 0.47 | 97 | 1004.8 |
| 20260506104820 | 50 | 64 | 1.0 | 5.0 | 0.02 | 0.58 | 0.46 | 97 | 1004.8 |
| 20260506104302 | 50 | 288 | 1.0 | 4.0 | 0.02 | 0.58 | 0.46 | 97 | 1004.8 |
| 20260506103802 | 50 | 271 | 1.0 | 5.0 | 0.02 | 0.58 | 0.46 | 97 | 1004.8 |
| 20260506103303 | 50 | 330 | 1.0 | 5.0 | 0.02 | 0.57 | 0.46 | 97 | 1004.8 |
| 20260506102802 | 50 | 248 | 2.0 | 7.0 | 0.03 | 0.57 | 0.46 | 97 | 1004.7 |
| 20260506102305 | 50 | 1 | 2.0 | 7.0 | 0.03 | 0.57 | 0.46 | 97 | 1004.7 |
| 20260506101731 | 50 | 321 | 2.0 | 7.0 | 0.04 | 0.57 | 0.45 | 97 | 1004.7 |
| 20260506101239 | 50 | 1 | 1.0 | 7.0 | 0.03 | 0.57 | 0.45 | 97 | 1004.7 |
| 20260506100736 | 50 | 269 | 1.0 | 4.0 | 0.04 | 0.57 | 0.45 | 97 | 1004.6 |
| 20260506100230 | 50 | 21 | 2.0 | 4.0 | 0.04 | 0.57 | 0.45 | 97 | 1004.6 |
| 20260506095731 | 50 | 12 | 1.0 | 5.0 | 0.04 | 0.57 | 0.45 | 97 | 1004.5 |
| 20260506095709 | 50 | 333 | 1.0 | 4.0 | 0.03 | 0.56 | 0.44 | 97 | 1004.5 |
| 20260506094721 | 50 | 291 | 2.0 | 7.0 | 0.04 | 0.56 | 0.44 | 97 | 1004.5 |
| 20260506094203 | 50 | 286 | 2.0 | 7.0 | 0.04 | 0.56 | 0.44 | 97 | 1004.5 |
| 20260506093702 | 50 | 309 | 2.0 | 5.0 | 0.04 | 0.56 | 0.43 | 97 | 1004.5 |
| 20260506093137 | 50 | 1 | 2.0 | 6.0 | 0.04 | 0.55 | 0.43 | 97 | 1004.4 |
| 20260506092632 | 50 | 2 | 1.0 | 6.0 | 0.03 | 0.54 | 0.43 | 97 | 1004.3 |
| 20260506092124 | 50 | 329 | 1.0 | 4.0 | 0.02 | 0.54 | 0.42 | 97 | 1004.4 |
| 20260506091604 | 49 | 27 | 1.0 | 2.0 | 0.02 | 0.54 | 0.42 | 97 | 1004.4 |
| 20260506091037 | 49 | 52 | 1.0 | 5.0 | 0.03 | 0.54 | 0.42 | 97 | 1004.4 |
| 20260506090754 | 49 | 41 | 2.0 | 4.0 | 0.02 | 0.53 | 0.41 | 97 | 1004.3 |
| 20260506090033 | 49 | 1 | 2.0 | 7.0 | 0.02 | 0.53 | 0.41 | 97 | 1004.3 |
| 20260506085527 | 49 | 0 | 2.0 | 6.0 | 0.02 | 0.53 | 0.41 | 97 | 1004.2 |
| 20260506085022 | 49 | 359 | 2.0 | 6.0 | 0.03 | 0.53 | 0.41 | 97 | 1004.2 |
| 20260506084521 | 49 | 53 | 2.0 | 6.0 | 0.02 | 0.52 | 0.40 | 97 | 1004.2 |
| 20260506084018 | 49 | 353 | 2.0 | 6.0 | 0.02 | 0.52 | 0.40 | 97 | 1004.1 |
| 20260506083511 | 49 | 238 | 2.0 | 6.0 | 0.02 | 0.52 | 0.39 | 97 | 1004.1 |
| 20260506083112 | 49 | 6 | 2.0 | 7.0 | 0.02 | 0.50 | 0.39 | 97 | 1003.9 |
| 20260506083108 | 49 | 6 | 2.0 | 7.0 | 0.02 | 0.51 | 0.39 | 97 | 1004.0 |
| 20260506083101 | 49 | 1 | 1.0 | 7.0 | 0.02 | 0.51 | 0.39 | 97 | 1004.0 |
| 20260506082137 | 49 | 16 | 2.0 | 6.0 | 0.02 | 0.51 | 0.39 | 97 | 1003.9 |
| 20260506081151 | 49 | 51 | 2.0 | 6.0 | 0.02 | 0.50 | 0.39 | 97 | 1003.8 |
| 20260506080432 | 49 | 0 | 2.0 | 6.0 | 0.02 | 0.50 | 0.39 | 97 | 1003.8 |
| 20260506073332 | 49 | 20 | 3.0 | 8.0 | 0.04 | 0.50 | 0.38 | 97 | 1003.7 |
| 20260506073046 | 49 | 1 | 2.0 | 7.0 | 0.05 | 0.50 | 0.37 | 97 | 1003.6 |